Gonzales, LA

7:18 PM CDT on August 18, 2017 (GMT -0500)
Gonzales

Weather History for KL38 - January, 2013

Change the Weather History Date:

Thursday, January 24, 2013

  Actual Average (KBTR) Record (KBTR)
Temperature  
Mean Temperature 59 °F -  
Max Temperature 72 °F 62 °F 82 °F (1909)
Min Temperature 46 °F 41 °F 12 °F (1963)
Degree Days  
Heating Degree Days 6    
Growing Degree Days 9 (Base 50)    
Moisture  
Dew Point 53 °F    
Average Humidity 82    
Maximum Humidity 100    
Minimum Humidity 57    
Precipitation  
Precipitation 0.00 in - - ()
Sea Level Pressure  
Sea Level Pressure 30.28 in    
Wind  
Wind Speed 2 mph (SSW)    
Max Wind Speed 10 mph    
Max Gust Speed 17 mph    
Visibility 8 miles    
Events Fog    
Averages and records for this station are not official NWS values.
T = Trace of Precipitation, MM = Missing Value Source: NWS Daily Summary

Daily Weather History Graph

Daily Weather History Graph

Search for Another Location

Airport or City:

Trip Planner

Search our weather history database for the weather conditions in past years. The results will help you decide how hot, cold, wet, or windy it might be!

Date:

Astronomy

Jan. 24, 2013 Rise Set
Actual Time 6:58 AM CST 5:34 PM CST
Civil Twilight 6:32 AM CST 5:59 PM CST
Nautical Twilight 6:03 AM CST 6:28 PM CST
Astronomical Twilight 5:35 AM CST 6:57 PM CST
Moon 3:38 PM CST (1/24) 4:53 AM CST (1/24)
Length of Visible Light 11h 26m
Length of Day
10h 35m
Waxing Gibbous, 94% of the Moon is Illuminated
Jan 24
Waxing Gibbous
Jan 26
Full
Feb 3
Last Quarter
Feb 10
New
Feb 17
First Quarter

Hourly Weather History & Observations

Time (CST) Temp. Dew Point Humidity Pressure Visibility Wind Dir Wind Speed Gust Speed Precip Events Conditions
12:15 AM 49.5 °F 48.7 °F 97% 30.29 in 4.0 mi South 3.5 mph - N/A   Clear
12:35 AM 50.7 °F 49.3 °F 95% 30.30 in 7.0 mi Calm Calm - N/A   Clear
12:55 AM 49.1 °F 48.6 °F 98% 30.30 in 7.0 mi Calm Calm - N/A   Clear
1:15 AM 49.1 °F 48.2 °F 97% 30.29 in 7.0 mi Calm Calm - N/A   Clear
1:35 AM 47.3 °F 46.4 °F 97% 30.29 in 7.0 mi Calm Calm - N/A   Clear
1:55 AM 48.6 °F 47.5 °F 96% 30.29 in 7.0 mi Calm Calm - N/A   Clear
2:15 AM 48.7 °F 47.8 °F 97% 30.29 in 7.0 mi Calm Calm - N/A   Clear
2:35 AM 48.7 °F 48.4 °F 99% 30.29 in 3.0 mi Calm Calm - N/A   Clear
2:55 AM 48.2 °F 47.8 °F 99% 30.28 in 0.2 mi Calm Calm - N/A Fog Fog
3:15 AM 48.0 °F 48.0 °F 100% 30.28 in 0.8 mi Calm Calm - N/A   Mostly Cloudy
3:35 AM 47.7 °F 47.5 °F 99% 30.28 in 2.5 mi Calm Calm - N/A   Clear
3:55 AM 48.2 °F 48.2 °F 100% 30.28 in 4.0 mi Calm Calm - N/A   Clear
4:15 AM 46.6 °F 46.2 °F 99% 30.28 in 5.0 mi Calm Calm - N/A   Clear
4:35 AM 47.5 °F 46.6 °F 97% 30.28 in 7.0 mi Calm Calm - N/A   Clear
4:55 AM 47.5 °F 47.3 °F 99% 30.29 in 7.0 mi Calm Calm - N/A   Clear
5:15 AM 48.0 °F 46.8 °F 95% 30.29 in 10.0 mi Calm Calm - N/A   Clear
5:35 AM 46.9 °F 46.2 °F 97% 30.29 in 5.0 mi Calm Calm - N/A   Clear
5:55 AM 46.8 °F 46.6 °F 99% 30.30 in 0.8 mi Calm Calm - N/A   Mist
6:15 AM 47.5 °F 47.1 °F 99% 30.31 in 4.0 mi Calm Calm - N/A   Clear
6:35 AM 46.0 °F 46.0 °F 100% 30.32 in 1.2 mi Calm Calm - N/A   Scattered Clouds
6:55 AM 46.4 °F 46.4 °F 100% 30.33 in 3.0 mi Calm Calm - N/A   Mostly Cloudy
7:15 AM 48.9 °F 48.2 °F 97% 30.33 in 4.0 mi Calm Calm - N/A   Overcast
7:35 AM 50.2 °F 49.6 °F 98% 30.32 in 4.0 mi Calm Calm - N/A   Overcast
7:55 AM 50.9 °F 50.5 °F 99% 30.33 in 3.0 mi Calm Calm - N/A   Overcast
8:15 AM 52.2 °F 51.4 °F 97% 30.33 in 3.0 mi Calm Calm - N/A   Overcast
8:35 AM 54.1 °F 53.4 °F 97% 30.33 in 3.0 mi Calm Calm - N/A   Scattered Clouds
8:55 AM 57.7 °F 54.9 °F 90% 30.34 in 7.0 mi South 3.5 mph - N/A   Scattered Clouds
9:15 AM 61.0 °F 55.9 °F 83% 30.34 in 10.0 mi South 4.6 mph - N/A   Scattered Clouds
9:35 AM 63.5 °F 56.7 °F 78% 30.34 in 10.0 mi South 6.9 mph - N/A   Clear
9:55 AM 65.5 °F 55.8 °F 71% 30.34 in 10.0 mi SSW 10.4 mph - N/A   Clear
10:15 AM 67.6 °F 55.6 °F 65% 30.34 in 10.0 mi SSW 8.1 mph - N/A   Clear
10:35 AM 68.7 °F 55.8 °F 63% 30.34 in 10.0 mi SSW 9.2 mph - N/A   Clear
10:55 AM 69.4 °F 56.1 °F 62% 30.33 in 10.0 mi SSW 8.1 mph - N/A   Clear
11:15 AM 69.8 °F 56.1 °F 62% 30.33 in 10.0 mi SSW 6.9 mph - N/A   Clear
11:35 AM 70.2 °F 56.5 °F 62% 30.32 in 10.0 mi West 4.6 mph - N/A   Clear
11:55 AM 70.9 °F 56.5 °F 60% 30.31 in 10.0 mi SSW 5.8 mph - N/A   Scattered Clouds
12:15 PM 71.6 °F 57.2 °F 60% 30.29 in 10.0 mi SW 8.1 mph - N/A   Mostly Cloudy
12:35 PM 72.5 °F 57.4 °F 59% 30.28 in 10.0 mi WSW 4.6 mph 17.3 mph N/A   Overcast
12:55 PM 70.2 °F 56.5 °F 62% 30.27 in 10.0 mi West 4.6 mph - N/A   Overcast
1:15 PM 70.7 °F 56.5 °F 61% 30.26 in 10.0 mi West 5.8 mph - N/A   Scattered Clouds
1:35 PM 71.8 °F 56.8 °F 59% 30.26 in 10.0 mi West 3.5 mph - N/A   Scattered Clouds
1:55 PM 71.8 °F 56.5 °F 58% 30.25 in 10.0 mi SW 4.6 mph - N/A   Clear
2:15 PM 72.0 °F 56.5 °F 58% 30.24 in 10.0 mi WSW 4.6 mph - N/A   Clear
2:35 PM 72.0 °F 56.3 °F 58% 30.24 in 10.0 mi SSW 8.1 mph - N/A   Scattered Clouds
2:55 PM 72.1 °F 56.1 °F 57% 30.23 in 10.0 mi SW 8.1 mph - N/A   Scattered Clouds
3:15 PM 72.1 °F 57.0 °F 59% 30.22 in 10.0 mi South 8.1 mph - N/A   Mostly Cloudy
3:35 PM 71.4 °F 56.7 °F 60% 30.22 in 10.0 mi SSW 9.2 mph - N/A   Overcast
3:55 PM 71.2 °F 56.3 °F 59% 30.23 in 10.0 mi SSW 8.1 mph - N/A   Overcast
4:15 PM 70.3 °F 56.3 °F 61% 30.23 in 10.0 mi SSW 4.6 mph - N/A   Overcast
4:35 PM 70.0 °F 56.3 °F 62% 30.23 in 10.0 mi SSW 8.1 mph - N/A   Mostly Cloudy
4:55 PM 70.0 °F 56.5 °F 62% 30.22 in 10.0 mi SSW 6.9 mph - N/A   Scattered Clouds
5:15 PM 68.7 °F 56.1 °F 64% 30.23 in 10.0 mi SW 5.8 mph - N/A   Scattered Clouds
5:35 PM 67.8 °F 55.9 °F 66% 30.23 in 10.0 mi SSW 4.6 mph - N/A   Clear
5:55 PM 66.6 °F 55.9 °F 69% 30.23 in 10.0 mi SSW 4.6 mph - N/A   Clear
6:15 PM 66.0 °F 55.8 °F 69% 30.24 in 10.0 mi SSW 4.6 mph - N/A   Clear
6:35 PM 65.1 °F 55.6 °F 71% 30.24 in 10.0 mi SSW 4.6 mph - N/A   Clear
6:55 PM 63.7 °F 55.4 °F 74% 30.25 in 10.0 mi SSW 3.5 mph - N/A   Clear
7:15 PM 61.7 °F 55.2 °F 79% 30.25 in 10.0 mi SSW 5.8 mph - N/A   Clear
7:35 PM 62.2 °F 55.4 °F 78% 30.26 in 10.0 mi SSW 3.5 mph - N/A   Clear
7:55 PM 61.2 °F 55.0 °F 80% 30.26 in 10.0 mi SSW 4.6 mph - N/A   Clear
8:15 PM 59.5 °F 54.7 °F 84% 30.27 in 10.0 mi Calm Calm - N/A   Clear
8:35 PM 58.3 °F 54.3 °F 87% 30.26 in 10.0 mi Calm Calm - N/A   Clear
8:55 PM 59.0 °F 54.7 °F 86% 30.26 in 10.0 mi Calm Calm - N/A   Clear
9:15 PM 56.3 °F 53.8 °F 91% 30.26 in 10.0 mi Calm Calm - N/A   Clear
9:35 PM 57.0 °F 54.0 °F 89% 30.26 in 10.0 mi Calm Calm - N/A   Clear
9:55 PM 55.4 °F 53.4 °F 93% 30.26 in 10.0 mi Calm Calm - N/A   Clear
10:15 PM 55.4 °F 54.0 °F 95% 30.26 in 10.0 mi Calm Calm - N/A   Clear
10:35 PM 58.1 °F 54.9 °F 89% 30.26 in 10.0 mi South 3.5 mph - N/A   Clear
10:55 PM 57.4 °F 54.3 °F 90% 30.26 in 10.0 mi Calm Calm - N/A   Clear
11:15 PM 56.3 °F 54.7 °F 94% 30.25 in 10.0 mi Calm Calm - N/A   Clear
11:35 PM 56.5 °F 54.9 °F 94% 30.25 in 10.0 mi Calm Calm - N/A   Clear
11:55 PM 56.5 °F 54.9 °F 94% 30.24 in 10.0 mi Calm Calm - N/A   Clear